map of MYY home
MYY - Airport
Location
City:  Miri, Sarawak, Malaysia
ICAO:WBGR
IATA:MYY

Details
Type:Airport (Aerodrome, Airfield)
Use:Public/Civil
Latitude:419'19"N (4.322014)
Longitude:11359'13"E (113.986806)
Datum:WGS 1984
Elevation:59 ft (18 m)
Variation:0.12W (WMM2015v2 magnetic declination)
-0.06 annual change
Runways:1
Longest:9006 × 197 ft (2745 × 60 m), paved

Time
Time Zone:UTC+8
Local Time:

Weather
METAR:WBGR 041400Z 05003KT 9999 FEW016 SCT150 BKN300 25/24 Q1012
TAF:WBGR 041100Z 0412/0512 03008KT 9999 FEW016

Related Locations
Nearby:
Farthest:SBUY: 12379 mi / 19922 km
Coari [Urucu], AM, BR

Find:

   beyond  
but within

Other Information
Maps:
NOTAMs:
Links:
Sources:

  
  • flag of Malaysia
  • flag of Sarawak
  

Sectional Chart

Flight Planning
at skyvector.com

Satellite Image

Google Maps Satellite view

 

Copyright © 2004-2019 Karl L. Swartz. All rights reserved.
The Great Circle Mapper name and logo are trademarks of the Great Circle Mapper.
All other trademarks mentioned herein belong to their respective owners.
Please see credits for attibutions and further copyright information.

  Follow gcmap on Facebook Follow gcmap on Twitter GCmap on LinkedIn

hCard Microformat

Geo Microformat